Location: Saint John
(45.2733°N, 66.0633°W)
Time: 16:40:49
(UTC-04:00)

BlueWalker 3 - Pass Details

Date: 04 December 2022
Orbit: 499 x 517 km, 53.2° (Epoch: 04 February)

Event Time Altitude Azimuth Distance (km) Brightness Sun altitude
Rises 17:47:49 0° 293° (WNW) 2,630 6.4 -11.2°
Reaches altitude 10° 17:50:18 10° 307° (NW) 1,739 5.1 -11.6°
Maximum altitude 17:53:38 25° 4° (N) 1,053 3.3 -12.1°
Enters shadow 17:55:34 17° 47° (NE) 1,326 3.5 -12.5°
